Location: Baia Mare
(47.6567°N, 23.5850°E)
Time: 23:45:32
(UTC+03:00)

ISS - Pass Details

Date: 09 March 2018
Orbit: 402 x 407 km, 51.6° (Epoch: 25 June)

Event Time Altitude Azimuth Distance (km) Brightness Sun altitude
Exits shadow 04:21:49 29° 53° (NE) 790 -1.8 -25.5°
Drops below altitude 10° 04:23:38 10° 64° (ENE) 1,482 0.1 -25.2°
Sets 04:25:44 0° 68° (ENE) 2,342 1.4 -24.9°
